Regional Weather Roundup
Issued by NWS

Home | Current Version | Previous Version | Text Only | Print | Product List | Glossary Off
Versions: 1 2 3 4 5 6 7 8 9 10 11 12 13 14 15 16 17 18 19 20 21 22 23 24 25 26 27 28 29 30 31 32 33 34 35 36 37 38 39 40 41 42 43 44 45 46 47 48 49 50

674
ASUS45 KPSR 201210
RWRAZ

ARIZONA HOURLY REGIONAL WEATHER ROUNDUP
NATIONAL WEATHER SERVICE PHOENIX AZ
500 AM MST FRI APR 20 2018

NOTE: FAIR INDICATES FEW OR NO CLOUDS BELOW 12,000 FEET WITH NO
SIGNIFICANT WEATHER AND/OR OBSTRUCTIONS TO VISIBILITY.

AZZ001>003-036-201300-
NORTHWEST ARIZONA

CITY           SKY/WX    TMP DP  RH WIND       PRES   REMARKS
BULLHEAD CITY  CLEAR     59  36  41 SE3       29.93R
KINGMAN        CLEAR     44  30  57 SW8       29.95S
6HR MIN TEMP:  44; 6HR MAX TEMP:  50;

$$

AZZ004>008-015-016-018-201300-
NORTH CENTRAL ARIZONA

CITY           SKY/WX    TMP DP  RH WIND       PRES   REMARKS
WILLIAMS       MIX PCPN  32  21  64 SW12G18   29.91S WCI  23
PRESCOTT       CLOUDY    41  23  48 W10       29.97R
6HR MIN TEMP:  38; 6HR MAX TEMP:  43;

FLAGSTAFF      MOCLDY    28  19  69 S9        29.93R WCI  19
6HR MIN TEMP:  26; 6HR MAX TEMP:  35;

PAYSON         CLEAR     37  23  56 CALM      29.96R
PAGE           MOCLDY    47  28  47 W3        29.84R
6HR MIN TEMP:  46; 6HR MAX TEMP:  50;

$$

AZZ009>014-017-201300-
NORTHEAST ARIZONA

CITY           SKY/WX    TMP DP  RH WIND       PRES   REMARKS
WINSLOW        CLEAR     34  17  50 SW9       29.93R WCI  27
6HR MIN TEMP:  33; 6HR MAX TEMP:  45;

SAINT JOHNS    CLEAR     37  24  59 S10       29.93S WCI  30
6HR MIN TEMP:  37; 6HR MAX TEMP:  53;

WINDOW ROCK    PTCLDY    31  12  45 S5        29.92R WCI  26
6HR MIN TEMP:  30; 6HR MAX TEMP:  46;

SHOW LOW       CLEAR     32  16  51 S6        29.97S WCI  26
$$

AZZ540-542>544-546-548-201300-
GREATER PHOENIX AREA

CITY           SKY/WX    TMP DP  RH WIND       PRES   REMARKS
PHOENIX        CLEAR     58  31  35 W5        29.94R
6HR MIN TEMP:  57; 6HR MAX TEMP:  64;

BUCKEYE        CLEAR     48  32  53 CALM      29.97R
LUKE AFB       CLEAR     56  30  38 SE5       29.94R
6HR MIN TEMP:  55; 6HR MAX TEMP:  62;

DEER VALLEY    CLEAR     53  30  41 CALM      29.95R
6HR MIN TEMP:  53; 6HR MAX TEMP:  61;

SCOTTSDALE     CLEAR     56  30  37 W7        29.97R
6HR MIN TEMP:  56; 6HR MAX TEMP:  63;

MESA-GATEWAY   CLEAR     54  30  40 SE6       29.97R
$$

AZZ539-553-201300-
SOUTHWEST MARICOPA COUNTY AND PINAL COUNTY

CITY           SKY/WX    TMP DP  RH WIND       PRES   REMARKS
CASA GRANDE    CLEAR     50  28  42 W6        29.97R
6HR MIN TEMP:  49; 6HR MAX TEMP:  60;

GILA BEND      FAIR      52  29  41 CALM      29.98R
6HR MIN TEMP:  51; 6HR MAX TEMP:  60;

$$

AZZ503-504-507>509-201300-
SOUTHEAST ARIZONA

CITY           SKY/WX    TMP DP  RH WIND       PRES   REMARKS
TUCSON         CLEAR     52  29  41 SW3       29.99F
6HR MIN TEMP:  52; 6HR MAX TEMP:  63;

DAVIS-MONTHAN  CLEAR     50  26  39 CALM      29.97
6HR MIN TEMP:  50; 6HR MAX TEMP:  61;

NOGALES        CLEAR     43  25  49 CALM      30.00S
6HR MIN TEMP:  43; 6HR MAX TEMP:  56;

SIERRA VISTA   CLEAR     46  24  42 W7        30.00F
6HR MIN TEMP:  46; 6HR MAX TEMP:  63;

DOUGLAS        CLEAR     49  14  24 NW8       29.98R
6HR MIN TEMP:  49; 6HR MAX TEMP:  62;

SAFFORD        CLEAR     52  21  29 NW20      29.94R
6HR MIN TEMP:  52; 6HR MAX TEMP:  63;

$$

AZZ532-201300-
SOUTHWEST ARIZONA

CITY           SKY/WX    TMP DP  RH WIND       PRES   REMARKS
YUMA           CLEAR     51  36  56 S3        30.01R
6HR MIN TEMP:  50; 6HR MAX TEMP:  58;

$$

CAZ041-043-047-048-061-525>527-560>570-201300-
SOUTHERN CALIFORNIA

CITY           SKY/WX    TMP DP  RH WIND       PRES   REMARKS
DOWNTOWN L.A.  PTCLDY    54  47  77 E6        30.10R
6HR MIN TEMP:  54; 6HR MAX TEMP:  57;

L.A. AIRPORT   PTCLDY    52  48  86 E8        30.10R
6HR MIN TEMP:  51; 6HR MAX TEMP:  57;

SAN DIEGO      PTCLDY    54  44  69 E6        30.13F
6HR MIN TEMP:  54; 6HR MAX TEMP:  58;

BURBANK        CLEAR     51  47  86 SE8       30.09R
6HR MIN TEMP:  51; 6HR MAX TEMP:  55;

ONTARIO        MOCLDY    48  41  76 CALM      30.10R
6HR MIN TEMP:  46; 6HR MAX TEMP:  52;

RIVERSIDE      CLEAR     46  42  86 CALM      30.11R
6HR MIN TEMP:  46; 6HR MAX TEMP:  52;

PALM SPRINGS   CLEAR     54  38  54 VRB3      30.00R
6HR MIN TEMP:  54; 6HR MAX TEMP:  64;

EL CENTRO NAS  CLEAR     54  34  46 W10       30.02R
6HR MIN TEMP:  53; 6HR MAX TEMP:  60;

IMPERIAL       CLEAR     52  37  56 W8        30.00R
6HR MIN TEMP:  50; 6HR MAX TEMP:  60;

BLYTHE         CLEAR     57  25  29 W5        29.97R
6HR MIN TEMP:  54; 6HR MAX TEMP:  65;

NEEDLES        CLEAR     60  29  30 W10       29.93R
6HR MIN TEMP:  60; 6HR MAX TEMP:  66;

$$

NVZ020-UTZ003-201300-
SOUTHERN NEVADA-UTAH

CITY           SKY/WX    TMP DP  RH WIND       PRES   REMARKS
LAS VEGAS      PTCLDY    55  36  48 NW14G25   29.92S
6HR MIN TEMP:  55; 6HR MAX TEMP:  58;

SALT LAKE CITY CLOUDY    51  34  52 NW13      29.74R
6HR MIN TEMP:  45; 6HR MAX TEMP:  56;

$$

NMZ009-TXZ055-201300-
NEW MEXICO-WEST TEXAS

CITY           SKY/WX    TMP DP  RH WIND       PRES   REMARKS
ALBUQUERQUE    PTCLDY    59  39  47 S26G37    29.82S
6HR MIN TEMP:  55; 6HR MAX TEMP:  60;

EL PASO        PTCLDY    63  47  55 S13       29.88S
6HR MIN TEMP:  62; 6HR MAX TEMP:  68;

$$


........................KEY........................
SKY/WX - SKY CONDITION/WEATHER
TMP    - TEMPERATURE IN FAHRENHEIT
DP     - DEW POINT IN FAHRENHEIT
RH     - RELATIVE HUMIDITY IN PERCENT
WIND   - DIRECTION AND SPEED IN MILES PER HOUR (MPH)
VRB    - VARIABLE WIND DIRECTION
PRES   - MEAN SEA LEVEL PRESSURE IN INCHES OF MERCURY
         F - FALLING PRESSURE   R - RISING PRESSURE
         S - STEADY PRESSURE
VSB    - VISIBILITY IN MILES
HX     - HEAT INDEX IN FAHRENHEIT
WCI    - WIND CHILL INDEX IN FAHRENHEIT
TC     - TEMPERATURE IN CELSIUS WHICH IS ALSO KNOWN AS
         TEMPERATURE IN CENTIGRADE
AFB    - AIR FORCE BASE
         LUKE AFB IS LUKE AIR FORCE BASE
         DAVIS-MONTHAN IS DAVIS-MONTHAN AIR FORCE BASE
NAS    - NAVAL AIR STATION
         EL CENTRO NAS IS EL CENTRO NAVAL AIR STATION
N/A    - NOT AVAILABLE





USA.gov is the U.S. government's official web portal to all federal, state and local government web resources and services.